TimeCET,TemperatureF,Dew PointF,Humidity,Sea Level PressureIn,VisibilityMPH,Wind Direction,Wind SpeedMPH,Gust SpeedMPH,PrecipitationIn,Events,Conditions,WindDirDegrees,DateUTC
12:00 AM,26.6,24.8,93,29.71,1.6,North,4.6,-,N/A,Fog,Patches of Fog,350,2012-12-05 23:00:00
12:30 AM,26.6,26.6,100,29.71,1.6,NNW,5.8,-,N/A,,Mist,330,2012-12-05 23:30:00
1:00 AM,21.2,21.2,100,29.71,1.6,NNW,6.9,-,N/A,,Mist,340,2012-12-06 00:00:00
1:30 AM,23.0,23.0,100,29.74,1.6,NW,5.8,-,N/A,,Mist,320,2012-12-06 00:30:00
2:00 AM,26.6,26.6,100,29.74,1.9,NW,6.9,-,N/A,,Mist,320,2012-12-06 01:00:00
2:30 AM,23.0,23.0,100,29.74,2.2,NW,6.9,-,N/A,Fog,Patches of Fog,310,2012-12-06 01:30:00
3:00 AM,24.8,24.8,100,29.74,2.2,NW,5.8,-,N/A,Fog,Patches of Fog,320,2012-12-06 02:00:00
3:30 AM,23.0,23.0,100,29.74,1.9,Variable,3.5,-,N/A,Fog,Patches of Fog,0,2012-12-06 02:30:00
4:00 AM,17.6,17.6,100,29.74,1.6,Variable,2.3,-,N/A,,Mist,0,2012-12-06 03:00:00
4:30 AM,14.0,14.0,100,29.74,1.6,Variable,3.5,-,N/A,Fog,Patches of Fog,0,2012-12-06 03:30:00
5:00 AM,14.0,14.0,100,29.74,0.9,Variable,1.2,-,N/A,,Mostly Cloudy,0,2012-12-06 04:00:00
5:30 AM,14.0,14.0,100,29.77,0.6,Variable,1.2,-,N/A,,Overcast,0,2012-12-06 04:30:00
6:00 AM,14.0,14.0,100,29.77,0.6,Variable,2.3,-,N/A,,Mostly Cloudy,0,2012-12-06 05:00:00
6:30 AM,14.0,14.0,100,29.77,0.4,Variable,2.3,-,N/A,Fog,Light Freezing Fog,0,2012-12-06 05:30:00
7:00 AM,14.0,14.0,100,29.77,0.4,SE,4.6,-,N/A,Fog,Light Freezing Fog,130,2012-12-06 06:00:00
7:30 AM,12.2,12.2,100,29.80,1.2,Variable,2.3,-,N/A,,Scattered Clouds,0,2012-12-06 06:30:00
8:00 AM,14.0,12.2,93,29.80,1.6,Variable,1.2,-,N/A,,Scattered Clouds,0,2012-12-06 07:00:00
8:30 AM,14.0,14.0,100,29.80,1.6,Variable,1.2,-,N/A,,Scattered Clouds,0,2012-12-06 07:30:00
9:00 AM,17.6,17.6,100,29.80,2.2,East,5.8,-,N/A,,Mist,100,2012-12-06 08:00:00
9:30 AM,15.8,15.8,100,29.83,2.8,East,9.2,-,N/A,,Mist,100,2012-12-06 08:30:00
10:00 AM,17.6,17.6,100,29.83,2.8,ESE,8.1,-,N/A,,Scattered Clouds,120,2012-12-06 09:00:00
10:30 AM,19.4,19.4,100,29.83,0.4,ESE,9.2,-,N/A,Fog,Light Freezing Fog,120,2012-12-06 09:30:00
11:00 AM,19.4,19.4,100,29.83,0.3,ESE,6.9,-,N/A,Fog,Light Freezing Fog,110,2012-12-06 10:00:00
11:30 AM,21.2,19.4,93,29.83,0.4,ESE,8.1,-,N/A,Fog,Light Freezing Fog,110,2012-12-06 10:30:00
12:00 PM,21.2,19.4,93,29.83,0.5,ESE,8.1,-,N/A,Fog,Light Freezing Fog,110,2012-12-06 11:00:00
12:30 PM,21.2,21.2,100,29.83,0.5,ESE,6.9,-,N/A,Fog,Light Freezing Fog,110,2012-12-06 11:30:00
1:00 PM,23.0,23.0,100,29.83,0.6,ENE,4.6,-,N/A,,Overcast,70,2012-12-06 12:00:00
1:30 PM,23.0,23.0,100,29.86,0.6,East,5.8,-,N/A,,Overcast,90,2012-12-06 12:30:00
2:00 PM,23.0,23.0,100,29.86,0.6,SE,4.6,-,N/A,,Overcast,130,2012-12-06 13:00:00
2:30 PM,23.0,23.0,100,29.86,0.7,Variable,3.5,-,N/A,,Overcast,0,2012-12-06 13:30:00
3:00 PM,23.0,23.0,100,29.86,0.6,East,4.6,-,N/A,,Overcast,90,2012-12-06 14:00:00
3:30 PM,23.0,23.0,100,29.86,0.3,ENE,4.6,-,N/A,Fog,Light Freezing Fog,70,2012-12-06 14:30:00
4:00 PM,23.0,23.0,100,29.89,0.5,Variable,2.3,-,N/A,Fog-Snow,Light Snow Grains,0,2012-12-06 15:00:00
4:30 PM,23.0,23.0,100,29.89,0.5,Variable,1.2,-,N/A,Fog-Snow,Light Snow Grains,0,2012-12-06 15:30:00
5:00 PM,23.0,23.0,100,29.89,0.6,Variable,2.3,-,N/A,,Overcast,0,2012-12-06 16:00:00
5:30 PM,23.0,23.0,100,29.89,0.9,Variable,2.3,-,N/A,Snow,Light Snow,0,2012-12-06 16:30:00
6:00 PM,23.0,23.0,100,29.89,1.9,Variable,2.3,-,N/A,Snow,Light Snow,0,2012-12-06 17:00:00
6:30 PM,23.0,23.0,100,29.92,1.4,Variable,1.2,-,N/A,,Mostly Cloudy,0,2012-12-06 17:30:00
7:00 PM,23.0,23.0,100,29.92,1.6,Variable,2.3,-,N/A,,Scattered Clouds,0,2012-12-06 18:00:00
7:30 PM,23.0,23.0,100,29.92,1.6,Calm,Calm,-,N/A,,Overcast,0,2012-12-06 18:30:00
8:00 PM,23.0,23.0,100,29.92,1.6,Variable,1.2,-,N/A,,Overcast,0,2012-12-06 19:00:00
8:30 PM,19.4,19.4,100,29.92,1.6,Variable,1.2,-,N/A,,Overcast,0,2012-12-06 19:30:00
9:00 PM,21.2,21.2,100,29.95,1.6,Calm,Calm,-,N/A,,Overcast,0,2012-12-06 20:00:00
9:30 PM,21.2,21.2,100,29.95,2.5,Variable,1.2,-,N/A,,Mist,0,2012-12-06 20:30:00
10:00 PM,21.2,21.2,100,29.95,5.0,NW,5.8,-,N/A,,Unknown,310,2012-12-06 21:00:00
10:30 PM,21.2,21.2,100,29.95,-9999.0,West,8.1,-,N/A,,Clear,280,2012-12-06 21:30:00
11:00 PM,24.8,23.0,93,29.95,-9999.0,NW,6.9,-,N/A,,Clear,310,2012-12-06 22:00:00
11:30 PM,26.6,21.2,80,29.95,-9999.0,West,12.7,-,N/A,,Clear,270,2012-12-06 22:30:00